This is the latest recevied weather packets stored in our database for station/object SQ6RR-12. If no packets are shown the sender has not sent any weather packets the latest 10 day(s).
| Time | Temp. | Humidity | Pressure | Rain* | Wind** | Luminosity | Snow |
|---|---|---|---|---|---|---|---|
| 1777475995 | 11.67° C | 27% | 1028.2 hPa | 0 mm | - | - | - |
| 1777475707 | 11.67° C | 26% | 1028.2 hPa | 0 mm | - | - | - |
| 1777475432 | 11.67° C | 27% | 1028.4 hPa | 0 mm | - | - | - |
| 1777475139 | 11.67° C | 27% | 1028.5 hPa | 0 mm | - | - | - |
| 1777474857 | 11.11° C | 26% | 1028.4 hPa | 0 mm | - | - | - |
| 1777474600 | 11.67° C | 26% | 1028.2 hPa | 0 mm | - | - | - |
| 1777474343 | 11.67° C | 27% | 1028.3 hPa | 0 mm | - | - | - |
| 1777474073 | 11.67° C | 27% | 1028.4 hPa | 0 mm | - | - | - |
| 1777473813 | 11.67° C | 28% | 1028.4 hPa | 0 mm | - | - | - |
| 1777473546 | 11.67° C | 27% | 1028.4 hPa | 0 mm | - | - | - |
| 1777473288 | 11.11° C | 27% | 1028.3 hPa | 0 mm | - | - | - |
| 1777473004 | 11.11° C | 28% | 1028.3 hPa | 0 mm | - | - | - |
| 1777472727 | 11.11° C | 27% | 1028.3 hPa | 0 mm | - | - | - |
| 1777472462 | 11.67° C | 27% | 1028.2 hPa | 0 mm | - | - | - |
| 1777472185 | 11.67° C | 27% | 1028.3 hPa | 0 mm | - | - | - |
| 1777471903 | 11.67° C | 26% | 1028.3 hPa | 0 mm | - | - | - |
| 1777471643 | 11.67° C | 28% | 1028.3 hPa | 0 mm | - | - | - |
| 1777471372 | 10.56° C | 27% | 1028.3 hPa | 0 mm | - | - | - |
| 1777471098 | 11.11° C | 25% | 1028.4 hPa | 0 mm | - | - | - |
| 1777470818 | 11.67° C | 26% | 1028.3 hPa | 0 mm | - | - | - |
| 1777470545 | 11.67° C | 26% | 1028.3 hPa | 0 mm | - | - | - |
| 1777470277 | 11.67° C | 27% | 1028.2 hPa | 0 mm | - | - | - |
| 1777470018 | 11.67° C | 26% | 1028.2 hPa | 0 mm | - | - | - |
| 1777469772 | 11.67° C | 25% | 1028.2 hPa | 0 mm | - | - | - |
| 1777469503 | 11.11° C | 29% | 1028.2 hPa | 0 mm | - | - | - |
* Rain latest hour (hover to see other rain measurements)
** Current wind speed in m/s (hover to see current wind gust speed)